Powrót do katalogu

GALAXY 23

TELSTAR 13

AktywnyŁącznośćGEO
NORAD 27854·PAYLOAD·🇺🇸 United States

Wystrzelony Aug 8, 2003 z Sea Launch Platform

Loading…

TLE

ŚwieżeSource: Space-Track

Epoka: Sep 14, 2026, 22:01 UTC

1 27854U 03034A   26257.91749406 -.00000117  00000-0  00000-0 0  9998
2 27854   3.4323  78.4203 0003506 119.9045  55.2236  0.98953710 84580

Śledź GALAXY 23 w czasie rzeczywistym z AllMySat

Download on the App Store